| time (UTC) | temp F | wind direction | speed knots | gust knots | rain 1hr in | rain 24hr in | rain mn in | humidity % | barometer mb |
| 20260903195029 | 84 | 65 | 2.6 | 6.1 | 0.00 | 0.04 | 0.01 | 85 | 1012.7 |
| 20260903194542 | 84 | 123 | 1.7 | 7.0 | 0.00 | 0.04 | 0.01 | 87 | 1012.8 |
| 20260903194023 | 83 | 55 | 3.5 | 7.8 | 0.00 | 0.04 | 0.01 | 88 | 1013.0 |
| 20260903193525 | 83 | 78 | 4.3 | 7.8 | 0.00 | 0.04 | 0.01 | 87 | 1013.1 |
| 20260903193049 | 83 | 91 | 2.6 | 6.1 | 0.00 | 0.04 | 0.01 | 90 | 1013.3 |
| 20260903192530 | 83 | 82 | 2.6 | 6.1 | 0.00 | 0.04 | 0.01 | 90 | 1013.3 |
| 20260903192025 | 83 | 40 | 2.6 | 6.1 | 0.00 | 0.04 | 0.01 | 89 | 1013.6 |
| 20260903191549 | 82 | 95 | 2.6 | 6.1 | 0.00 | 0.04 | 0.01 | 89 | 1013.6 |
| 20260903191024 | 83 | 83 | 1.7 | 6.1 | 0.00 | 0.04 | 0.01 | 89 | 1013.6 |
| 20260903190524 | 82 | 100 | 2.6 | 5.2 | 0.00 | 0.04 | 0.01 | 92 | 1013.7 |
| 20260903190044 | 81 | 83 | 1.7 | 5.2 | 0.00 | 0.04 | 0.01 | 92 | 1013.8 |
| 20260903185522 | 80 | 94 | 1.7 | 6.1 | 0.00 | 0.04 | 0.01 | 92 | 1013.7 |
| 20260903185024 | 80 | 104 | 2.6 | 6.1 | 0.00 | 0.04 | 0.01 | 91 | 1013.7 |
| 20260903184551 | 80 | 157 | 2.6 | 7.0 | 0.00 | 0.04 | 0.01 | 90 | 1013.7 |
| 20260903184027 | 80 | 115 | 1.7 | 7.0 | 0.00 | 0.04 | 0.01 | 90 | 1013.6 |
| 20260903183524 | 80 | 124 | 2.6 | 8.7 | 0.00 | 0.04 | 0.01 | 89 | 1013.6 |
| 20260903183050 | 80 | 137 | 1.7 | 8.7 | 0.00 | 0.04 | 0.01 | 88 | 1013.6 |
| 20260903182524 | 81 | 154 | 3.5 | 8.7 | 0.00 | 0.04 | 0.01 | 88 | 1013.7 |
| 20260903182025 | 81 | 107 | 2.6 | 5.2 | 0.00 | 0.04 | 0.01 | 89 | 1013.6 |
| 20260903181547 | 81 | 92 | 1.7 | 6.1 | 0.00 | 0.04 | 0.01 | 89 | 1013.6 |
| 20260903181026 | 81 | 79 | 1.7 | 6.1 | 0.00 | 0.04 | 0.01 | 88 | 1013.6 |
| 20260903180529 | 81 | 80 | 3.5 | 6.1 | 0.00 | 0.04 | 0.01 | 88 | 1013.5 |
| 20260903180047 | 81 | 74 | 1.7 | 4.3 | 0.00 | 0.04 | 0.01 | 87 | 1013.6 |
| 20260903175520 | 82 | 80 | 1.7 | 7.0 | 0.00 | 0.04 | 0.01 | 87 | 1013.7 |
| 20260903175023 | 81 | 96 | 1.7 | 7.0 | 0.00 | 0.04 | 0.01 | 87 | 1013.8 |
| 20260903174542 | 82 | 98 | 1.7 | 7.0 | 0.00 | 0.04 | 0.01 | 87 | 1014.0 |
| 20260903174022 | 82 | 121 | 2.6 | 7.0 | 0.00 | 0.04 | 0.01 | 86 | 1014.2 |
| 20260903173525 | 82 | 119 | 3.5 | 7.0 | 0.00 | 0.04 | 0.01 | 86 | 1014.3 |
| 20260903173043 | 83 | 109 | 2.6 | 5.2 | 0.00 | 0.04 | 0.01 | 87 | 1014.4 |
| 20260903172528 | 83 | 84 | 2.6 | 5.2 | 0.00 | 0.04 | 0.01 | 86 | 1014.4 |
| 20260903172026 | 83 | 80 | 1.7 | 7.0 | 0.00 | 0.04 | 0.01 | 86 | 1014.4 |
| 20260903171545 | 83 | 80 | 2.6 | 7.0 | 0.00 | 0.04 | 0.01 | 86 | 1014.3 |
| 20260903171025 | 83 | 107 | 2.6 | 7.0 | 0.00 | 0.04 | 0.01 | 86 | 1014.5 |
| 20260903170524 | 84 | 85 | 4.3 | 7.8 | 0.00 | 0.04 | 0.01 | 85 | 1014.6 |
| 20260903170052 | 84 | 90 | 4.3 | 7.8 | 0.00 | 0.04 | 0.01 | 85 | 1014.6 |
| 20260903165526 | 84 | 77 | 4.3 | 9.6 | 0.00 | 0.04 | 0.01 | 83 | 1014.5 |
| 20260903165025 | 84 | 65 | 4.3 | 9.6 | 0.00 | 0.04 | 0.01 | 84 | 1014.5 |
| 20260903164549 | 85 | 64 | 3.5 | 7.8 | 0.00 | 0.04 | 0.01 | 84 | 1014.6 |
| 20260903164025 | 85 | 63 | 4.3 | 8.7 | 0.00 | 0.04 | 0.01 | 83 | 1014.6 |
| 20260903163527 | 85 | 76 | 3.5 | 8.7 | 0.00 | 0.04 | 0.01 | 83 | 1014.6 |
| 20260903163101 | 86 | 76 | 3.5 | 9.6 | 0.00 | 0.04 | 0.01 | 80 | 1014.7 |
| 20260903162523 | 86 | 32 | 3.5 | 9.6 | 0.00 | 0.04 | 0.01 | 83 | 1014.7 |
| 20260903162025 | 85 | 62 | 6.1 | 9.6 | 0.00 | 0.04 | 0.01 | 82 | 1014.6 |
| 20260903161543 | 85 | 89 | 5.2 | 8.7 | 0.00 | 0.04 | 0.01 | 79 | 1014.7 |
| 20260903161023 | 85 | 80 | 2.6 | 8.7 | 0.00 | 0.04 | 0.01 | 81 | 1014.7 |
| 20260903160526 | 87 | 76 | 1.7 | 8.7 | 0.00 | 0.04 | 0.01 | 81 | 1014.6 |
| 20260903160048 | 87 | 114 | 2.6 | 7.8 | 0.00 | 0.04 | 0.01 | 82 | 1014.6 |
| 20260903155525 | 85 | 101 | 4.3 | 7.8 | 0.00 | 0.04 | 0.01 | 84 | 1014.7 |
| 20260903155026 | 84 | 55 | 3.5 | 7.8 | 0.00 | 0.04 | 0.01 | 85 | 1014.7 |
| 20260903154550 | 84 | 63 | 3.5 | 7.8 | 0.00 | 0.04 | 0.01 | 84 | 1014.8 |
| 20260903154027 | 83 | 50 | 3.5 | 7.8 | 0.00 | 0.04 | 0.01 | 85 | 1014.9 |
| 20260903153525 | 84 | 49 | 2.6 | 7.0 | 0.00 | 0.04 | 0.01 | 86 | 1014.8 |
| 20260903153058 | 84 | 60 | 3.5 | 7.0 | 0.00 | 0.04 | 0.01 | 85 | 1014.8 |
| 20260903152523 | 84 | 61 | 3.5 | 7.0 | 0.00 | 0.04 | 0.01 | 85 | 1014.9 |
| 20260903152028 | 84 | 29 | 1.7 | 7.0 | 0.00 | 0.04 | 0.01 | 87 | 1014.9 |
| 20260903151542 | 83 | 134 | 3.5 | 7.0 | 0.00 | 0.04 | 0.01 | 87 | 1014.9 |
| 20260903151025 | 83 | 86 | 3.5 | 8.7 | 0.00 | 0.04 | 0.01 | 88 | 1014.9 |
| 20260903150525 | 83 | 103 | 4.3 | 8.7 | 0.00 | 0.04 | 0.01 | 88 | 1014.7 |
| 20260903150100 | 83 | 48 | 3.5 | 7.8 | 0.00 | 0.04 | 0.01 | 88 | 1014.8 |
| 20260903145526 | 84 | 73 | 3.5 | 7.8 | 0.00 | 0.04 | 0.01 | 88 | 1014.9 |
| 20260903145026 | 83 | 43 | 2.6 | 7.8 | 0.00 | 0.04 | 0.01 | 89 | 1014.9 |
| 20260903144544 | 83 | 86 | 2.6 | 7.0 | 0.00 | 0.04 | 0.01 | 90 | 1014.9 |
| 20260903144023 | 82 | 86 | 3.5 | 8.7 | 0.00 | 0.04 | 0.01 | 90 | 1014.9 |
| 20260903143525 | 82 | 62 | 3.5 | 8.7 | 0.00 | 0.04 | 0.01 | 91 | 1015.0 |
| 20260903143058 | 81 | 90 | 4.3 | 7.8 | 0.00 | 0.04 | 0.01 | 91 | 1014.9 |
| 20260903142525 | 81 | 26 | 2.6 | 7.8 | 0.00 | 0.04 | 0.01 | 91 | 1014.9 |
| 20260903142025 | 81 | 76 | 2.6 | 6.1 | 0.00 | 0.04 | 0.01 | 91 | 1014.9 |
| 20260903141550 | 81 | 46 | 2.6 | 6.1 | 0.00 | 0.04 | 0.01 | 91 | 1014.7 |
| 20260903141024 | 81 | 38 | 2.6 | 4.3 | 0.00 | 0.04 | 0.01 | 91 | 1014.7 |
| 20260903140525 | 82 | 43 | 1.7 | 6.1 | 0.00 | 0.04 | 0.01 | 91 | 1014.7 |
| 20260903140051 | 82 | 81 | 2.6 | 7.0 | 0.00 | 0.04 | 0.01 | 91 | 1014.7 |
| 20260903135526 | 82 | 70 | 2.6 | 7.8 | 0.00 | 0.04 | 0.01 | 92 | 1014.7 |
| 20260903135023 | 81 | 68 | 4.3 | 7.8 | 0.00 | 0.04 | 0.01 | 91 | 1014.6 |
| 20260903134545 | 82 | 57 | 3.5 | 7.0 | 0.00 | 0.04 | 0.01 | 91 | 1014.6 |
| 20260903134020 | 81 | 52 | 3.5 | 7.0 | 0.00 | 0.04 | 0.01 | 92 | 1014.5 |
| 20260903133524 | 81 | 52 | 3.5 | 7.0 | 0.00 | 0.04 | 0.01 | 91 | 1014.5 |
| 20260903133042 | 82 | 72 | 2.6 | 4.3 | 0.00 | 0.04 | 0.01 | 92 | 1014.5 |
| 20260903132522 | 81 | 0 | 0.9 | 3.5 | 0.00 | 0.04 | 0.01 | 93 | 1014.4 |
| 20260903132024 | 81 | 61 | 0.9 | 3.5 | 0.00 | 0.04 | 0.01 | 94 | 1014.4 |
| 20260903131543 | 81 | 0 | 0.9 | 4.3 | 0.00 | 0.04 | 0.01 | 95 | 1014.4 |
| 20260903131030 | 80 | 58 | 1.7 | 4.3 | 0.00 | 0.04 | 0.01 | 95 | 1014.4 |
| 20260903130528 | 80 | 40 | 1.7 | 5.2 | 0.00 | 0.04 | 0.01 | 96 | 1014.4 |
| 20260903130048 | 79 | 43 | 2.6 | 5.2 | 0.00 | 0.04 | 0.01 | 96 | 1014.3 |
| 20260903125521 | 79 | 61 | 2.6 | 5.2 | 0.00 | 0.04 | 0.01 | 97 | 1014.4 |
| 20260903125024 | 78 | 50 | 2.6 | 5.2 | 0.00 | 0.04 | 0.01 | 97 | 1014.5 |
| 20260903124543 | 79 | 49 | 1.7 | 5.2 | 0.00 | 0.04 | 0.01 | 97 | 1014.6 |
| 20260903124025 | 78 | 42 | 1.7 | 3.5 | 0.00 | 0.04 | 0.01 | 97 | 1014.6 |
| 20260903123521 | 78 | 59 | 1.7 | 3.5 | 0.00 | 0.04 | 0.01 | 97 | 1014.5 |
| 20260903123042 | 78 | 53 | 0.9 | 2.6 | 0.00 | 0.04 | 0.01 | 97 | 1014.4 |
| 20260903122518 | 77 | 49 | 0.9 | 2.6 | 0.00 | 0.04 | 0.01 | 97 | 1014.5 |
| 20260903122024 | 77 | 43 | 0.0 | 1.7 | 0.00 | 0.04 | 0.01 | 97 | 1014.3 |
| 20260903121548 | 77 | 0 | 0.0 | 1.7 | 0.00 | 0.04 | 0.01 | 97 | 1014.2 |
| 20260903121025 | 77 | 0 | 0.0 | 1.7 | 0.00 | 0.04 | 0.01 | 97 | 1014.2 |
| 20260903120521 | 77 | 0 | 0.0 | 4.3 | 0.00 | 0.04 | 0.01 | 97 | 1014.1 |
| 20260903120051 | 77 | 0 | 0.0 | 4.3 | 0.00 | 0.04 | 0.01 | 97 | 1014.1 |
| 20260903115524 | 77 | 40 | 0.9 | 4.3 | 0.00 | 0.04 | 0.01 | 97 | 1014.1 |
| 20260903115024 | 76 | 62 | 2.6 | 4.3 | 0.00 | 0.04 | 0.01 | 97 | 1014.0 |
| 20260903114541 | 76 | 69 | 1.7 | 4.3 | 0.00 | 0.04 | 0.01 | 97 | 1013.9 |
| 20260903114026 | 76 | 56 | 1.7 | 4.3 | 0.00 | 0.04 | 0.01 | 97 | 1013.9 |
| 20260903113522 | 76 | 43 | 0.9 | 4.3 | 0.00 | 0.04 | 0.01 | 97 | 1013.8 |
| 20260903113040 | 76 | 44 | 0.9 | 3.5 | 0.00 | 0.04 | 0.01 | 97 | 1013.9 |
| 20260903112524 | 76 | 43 | 0.9 | 4.3 | 0.00 | 0.04 | 0.01 | 97 | 1013.8 |
| 20260903112021 | 76 | 0 | 0.9 | 4.3 | 0.00 | 0.04 | 0.01 | 97 | 1013.6 |
| 20260903111555 | 76 | 54 | 0.9 | 2.6 | 0.00 | 0.04 | 0.01 | 97 | 1013.5 |
| 20260903111027 | 76 | 0 | 0.0 | 2.6 | 0.00 | 0.04 | 0.01 | 97 | 1013.4 |
| 20260903110520 | 76 | 0 | 0.0 | 2.6 | 0.00 | 0.04 | 0.01 | 97 | 1013.5 |
| 20260903110043 | 76 | 0 | 0.0 | 1.7 | 0.00 | 0.04 | 0.01 | 97 | 1013.5 |
| 20260903105521 | 76 | 0 | 0.0 | 1.7 | 0.00 | 0.04 | 0.01 | 97 | 1013.4 |
| 20260903105024 | 76 | 0 | 0.0 | 0.0 | 0.00 | 0.04 | 0.01 | 97 | 1013.2 |
| 20260903104601 | 76 | 0 | 0.0 | 0.0 | 0.00 | 0.04 | 0.01 | 97 | 1013.1 |
| 20260903104023 | 76 | 0 | 0.0 | 1.7 | 0.00 | 0.04 | 0.01 | 97 | 1013.3 |
| 20260903103524 | 76 | 0 | 0.0 | 1.7 | 0.00 | 0.04 | 0.01 | 97 | 1013.1 |
| 20260903103055 | 76 | 82 | 0.9 | 1.7 | 0.00 | 0.04 | 0.01 | 97 | 1013.1 |
| 20260903102519 | 76 | 0 | 0.0 | 2.6 | 0.00 | 0.04 | 0.01 | 97 | 1013.0 |
| 20260903102025 | 76 | 65 | 0.9 | 2.6 | 0.00 | 0.04 | 0.01 | 97 | 1013.0 |
| 20260903101549 | 76 | 42 | 0.0 | 1.7 | 0.00 | 0.04 | 0.01 | 97 | 1013.0 |
| 20260903101021 | 76 | 0 | 0.0 | 0.0 | 0.00 | 0.04 | 0.01 | 97 | 1013.0 |
| 20260903100524 | 76 | 0 | 0.0 | 0.0 | 0.00 | 0.04 | 0.01 | 97 | 1013.0 |
| 20260903100049 | 76 | 0 | 0.0 | 0.0 | 0.00 | 0.04 | 0.01 | 97 | 1013.0 |
| 20260903095523 | 76 | 0 | 0.0 | 0.0 | 0.00 | 0.04 | 0.01 | 97 | 1013.1 |
| 20260903095022 | 76 | 0 | 0.0 | 0.0 | 0.00 | 0.04 | 0.01 | 97 | 1013.1 |
| 20260903094549 | 76 | 0 | 0.0 | 0.0 | 0.00 | 0.04 | 0.01 | 97 | 1013.1 |
| 20260903094024 | 76 | 0 | 0.0 | 1.7 | 0.00 | 0.04 | 0.01 | 97 | 1013.0 |
| 20260903093523 | 76 | 0 | 0.0 | 1.7 | 0.00 | 0.04 | 0.01 | 97 | 1013.1 |
| 20260903093048 | 75 | 0 | 0.0 | 0.0 | 0.00 | 0.04 | 0.01 | 97 | 1013.1 |
| 20260903092518 | 76 | 0 | 0.0 | 0.0 | 0.00 | 0.04 | 0.01 | 97 | 1013.1 |
| 20260903092027 | 76 | 0 | 0.0 | 0.0 | 0.00 | 0.04 | 0.01 | 96 | 1013.1 |
| 20260903091549 | 76 | 0 | 0.0 | 0.0 | 0.00 | 0.04 | 0.01 | 96 | 1013.0 |
| 20260903091025 | 76 | 0 | 0.0 | 0.9 | 0.00 | 0.04 | 0.01 | 96 | 1013.0 |
| 20260903090521 | 76 | 0 | 0.0 | 0.9 | 0.00 | 0.04 | 0.01 | 96 | 1012.9 |
| 20260903090048 | 76 | 0 | 0.0 | 0.9 | 0.00 | 0.04 | 0.01 | 96 | 1012.9 |
| 20260903085524 | 76 | 42 | 0.0 | 1.7 | 0.00 | 0.04 | 0.01 | 96 | 1012.9 |
| 20260903085022 | 76 | 0 | 0.0 | 2.6 | 0.00 | 0.04 | 0.01 | 96 | 1012.8 |
| 20260903084546 | 76 | 30 | 0.0 | 2.6 | 0.00 | 0.04 | 0.01 | 97 | 1012.8 |
| 20260903084019 | 76 | 53 | 0.9 | 2.6 | 0.00 | 0.04 | 0.01 | 97 | 1012.8 |
| 20260903083525 | 76 | 49 | 0.0 | 1.7 | 0.00 | 0.04 | 0.01 | 97 | 1012.8 |
| 20260903083057 | 76 | 49 | 0.0 | 2.6 | 0.00 | 0.04 | 0.01 | 97 | 1012.8 |
| 20260903082529 | 76 | 49 | 0.0 | 2.6 | 0.00 | 0.04 | 0.01 | 97 | 1012.8 |
| 20260903082024 | 76 | 0 | 0.0 | 1.7 | 0.00 | 0.04 | 0.01 | 97 | 1012.8 |
| 20260903081606 | 76 | 0 | 0.0 | 2.6 | 0.00 | 0.04 | 0.01 | 97 | 1012.8 |
| 20260903081027 | 76 | 0 | 0.0 | 2.6 | 0.00 | 0.04 | 0.01 | 97 | 1012.8 |
| 20260903080531 | 76 | 74 | 0.0 | 2.6 | 0.00 | 0.04 | 0.01 | 97 | 1012.9 |
| 20260903080049 | 76 | 0 | 0.0 | 1.7 | 0.00 | 0.04 | 0.01 | 97 | 1012.9 |
| 20260903075528 | 76 | 0 | 0.0 | 1.7 | 0.00 | 0.05 | 0.01 | 97 | 1012.9 |
| 20260903075019 | 76 | 0 | 0.0 | 2.6 | 0.00 | 0.05 | 0.01 | 96 | 1012.9 |
| 20260903074547 | 76 | 48 | 0.0 | 2.6 | 0.00 | 0.05 | 0.01 | 96 | 1013.0 |
| 20260903074026 | 76 | 53 | 0.9 | 2.6 | 0.00 | 0.05 | 0.01 | 96 | 1013.0 |
| 20260903073525 | 76 | 46 | 0.0 | 2.6 | 0.00 | 0.05 | 0.01 | 96 | 1013.0 |
| 20260903073041 | 76 | 0 | 0.0 | 2.6 | 0.00 | 0.05 | 0.01 | 96 | 1013.1 |
| 20260903072524 | 76 | 35 | 0.0 | 2.6 | 0.00 | 0.05 | 0.01 | 96 | 1013.1 |
| 20260903072027 | 76 | 0 | 0.0 | 2.6 | 0.00 | 0.05 | 0.01 | 96 | 1013.2 |
| 20260903071549 | 76 | 0 | 0.0 | 2.6 | 0.00 | 0.05 | 0.01 | 96 | 1013.2 |
| 20260903071025 | 76 | 43 | 0.0 | 2.6 | 0.00 | 0.05 | 0.01 | 96 | 1013.2 |
| 20260903070523 | 76 | 0 | 0.0 | 1.7 | 0.00 | 0.05 | 0.01 | 96 | 1013.2 |
| 20260903070042 | 76 | 47 | 0.9 | 2.6 | 0.00 | 0.05 | 0.01 | 96 | 1013.2 |
| 20260903065523 | 76 | 0 | 0.0 | 2.6 | 0.00 | 0.05 | 0.01 | 96 | 1013.3 |
| 20260903065024 | 76 | 40 | 0.9 | 2.6 | 0.00 | 0.05 | 0.01 | 96 | 1013.2 |
| 20260903064547 | 76 | 36 | 0.9 | 2.6 | 0.00 | 0.05 | 0.01 | 96 | 1013.4 |
| 20260903064024 | 76 | 0 | 0.0 | 3.5 | 0.00 | 0.05 | 0.01 | 96 | 1013.3 |
| 20260903063522 | 76 | 55 | 0.9 | 3.5 | 0.00 | 0.05 | 0.01 | 96 | 1013.4 |
| 20260903063051 | 76 | 49 | 0.9 | 2.6 | 0.00 | 0.05 | 0.01 | 96 | 1013.6 |
| 20260903062521 | 77 | 42 | 0.0 | 1.7 | 0.00 | 0.05 | 0.01 | 96 | 1013.5 |
| 20260903062024 | 77 | 0 | 0.0 | 2.6 | 0.00 | 0.05 | 0.01 | 96 | 1013.6 |
| 20260903061544 | 77 | 0 | 0.0 | 2.6 | 0.00 | 0.05 | 0.01 | 96 | 1013.6 |
| 20260903061023 | 77 | 0 | 0.9 | 2.6 | 0.00 | 0.05 | 0.01 | 96 | 1013.7 |
| 20260903060524 | 77 | 51 | 0.9 | 2.6 | 0.00 | 0.05 | 0.01 | 96 | 1013.7 |
| 20260903060044 | 77 | 0 | 0.0 | 3.5 | 0.00 | 0.05 | 0.01 | 96 | 1013.7 |
| 20260903055524 | 77 | 53 | 0.0 | 3.5 | 0.00 | 0.05 | 0.01 | 96 | 1013.7 |
| 20260903055025 | 77 | 38 | 0.9 | 3.5 | 0.00 | 0.05 | 0.01 | 96 | 1013.7 |
| 20260903054555 | 77 | 27 | 0.9 | 3.5 | 0.00 | 0.05 | 0.01 | 96 | 1013.7 |
| 20260903054024 | 77 | 55 | 1.7 | 3.5 | 0.00 | 0.05 | 0.01 | 96 | 1013.8 |
| 20260903053521 | 77 | 47 | 0.9 | 2.6 | 0.00 | 0.05 | 0.01 | 96 | 1013.8 |
| 20260903053041 | 77 | 57 | 0.0 | 2.6 | 0.00 | 0.05 | 0.01 | 96 | 1014.0 |
| 20260903052524 | 77 | 50 | 0.9 | 2.6 | 0.00 | 0.05 | 0.01 | 96 | 1014.0 |
| 20260903052025 | 77 | 44 | 0.9 | 2.6 | 0.01 | 0.05 | 0.01 | 96 | 1014.1 |
| 20260903051542 | 77 | 49 | 0.9 | 2.6 | 0.01 | 0.05 | 0.01 | 96 | 1014.0 |
| 20260903051024 | 77 | 47 | 0.9 | 2.6 | 0.01 | 0.05 | 0.01 | 96 | 1014.2 |
| 20260903050525 | 77 | 50 | 0.9 | 2.6 | 0.01 | 0.05 | 0.01 | 96 | 1014.2 |
| 20260903050049 | 77 | 57 | 0.9 | 2.6 | 0.01 | 0.05 | 0.01 | 96 | 1014.2 |
| 20260903045527 | 77 | 45 | 0.9 | 2.6 | 0.01 | 0.05 | 0.01 | 96 | 1014.3 |
| 20260903045023 | 77 | 70 | 0.9 | 2.6 | 0.01 | 0.05 | 0.01 | 96 | 1014.3 |
| 20260903044547 | 77 | 0 | 0.0 | 2.6 | 0.01 | 0.05 | 0.01 | 96 | 1014.3 |
| 20260903044023 | 77 | 0 | 0.0 | 2.6 | 0.01 | 0.05 | 0.01 | 96 | 1014.4 |
| 20260903043522 | 77 | 71 | 0.9 | 3.5 | 0.01 | 0.05 | 0.01 | 96 | 1014.4 |
| 20260903043042 | 77 | 53 | 1.7 | 3.5 | 0.01 | 0.05 | 0.01 | 96 | 1014.3 |
| 20260903042520 | 77 | 57 | 0.9 | 3.5 | 0.01 | 0.05 | 0.01 | 96 | 1014.4 |
| 20260903042024 | 77 | 65 | 0.9 | 3.5 | 0.00 | 0.04 | 0.00 | 96 | 1014.5 |
| 20260903041551 | 77 | 73 | 1.7 | 3.5 | 0.00 | 0.04 | 0.00 | 96 | 1014.3 |
| 20260903041023 | 77 | 78 | 1.7 | 3.5 | 0.00 | 0.04 | 0.00 | 96 | 1014.4 |
| 20260903040523 | 77 | 30 | 0.9 | 6.1 | 0.00 | 0.04 | 0.00 | 96 | 1014.3 |
| 20260903040045 | 77 | 68 | 1.7 | 6.1 | 0.00 | 0.04 | 0.00 | 96 | 1014.5 |
| 20260903035522 | 78 | 74 | 2.6 | 5.2 | 0.00 | 0.04 | 0.04 | 96 | 1014.6 |
| 20260903035024 | 78 | 26 | 1.7 | 3.5 | 0.00 | 0.04 | 0.04 | 96 | 1014.5 |
| 20260903034543 | 78 | 55 | 1.7 | 3.5 | 0.00 | 0.04 | 0.04 | 96 | 1014.5 |
| 20260903034023 | 78 | 65 | 1.7 | 3.5 | 0.00 | 0.04 | 0.04 | 96 | 1014.5 |
| 20260903033522 | 78 | 74 | 0.9 | 4.3 | 0.00 | 0.04 | 0.04 | 96 | 1014.5 |
| 20260903033052 | 78 | 72 | 1.7 | 4.3 | 0.00 | 0.04 | 0.04 | 96 | 1014.6 |
| 20260903032528 | 77 | 55 | 0.9 | 3.5 | 0.00 | 0.04 | 0.04 | 96 | 1014.5 |
| 20260903032025 | 77 | 58 | 1.7 | 3.5 | 0.00 | 0.04 | 0.04 | 96 | 1014.5 |
| 20260903031551 | 77 | 0 | 0.0 | 2.6 | 0.00 | 0.04 | 0.04 | 96 | 1014.5 |
| 20260903031025 | 77 | 50 | 0.9 | 2.6 | 0.00 | 0.04 | 0.04 | 96 | 1014.6 |
| 20260903030528 | 77 | 0 | 0.0 | 2.6 | 0.00 | 0.04 | 0.04 | 96 | 1014.6 |
| 20260903030042 | 77 | 0 | 0.0 | 2.6 | 0.00 | 0.04 | 0.04 | 96 | 1014.5 |
| 20260903025520 | 77 | 71 | 0.9 | 2.6 | 0.00 | 0.04 | 0.04 | 96 | 1014.5 |
| 20260903025023 | 77 | 84 | 0.9 | 2.6 | 0.00 | 0.04 | 0.04 | 96 | 1014.5 |
| 20260903024542 | 77 | 80 | 0.9 | 2.6 | 0.00 | 0.04 | 0.04 | 95 | 1014.6 |
| 20260903024024 | 77 | 65 | 0.9 | 1.7 | 0.00 | 0.04 | 0.04 | 95 | 1014.6 |
| 20260903023530 | 77 | 0 | 0.0 | 0.0 | 0.01 | 0.04 | 0.04 | 95 | 1014.7 |
| 20260903023042 | 77 | 0 | 0.0 | 0.0 | 0.01 | 0.04 | 0.04 | 95 | 1014.8 |
| 20260903022519 | 77 | 0 | 0.0 | 0.0 | 0.01 | 0.04 | 0.04 | 95 | 1014.7 |
| 20260903022020 | 77 | 0 | 0.0 | 0.0 | 0.01 | 0.04 | 0.04 | 95 | 1014.6 |
| 20260903021545 | 77 | 0 | 0.0 | 0.0 | 0.02 | 0.04 | 0.04 | 95 | 1014.6 |
| 20260903021023 | 77 | 0 | 0.0 | 0.9 | 0.02 | 0.04 | 0.04 | 95 | 1014.7 |
| 20260903020527 | 77 | 0 | 0.0 | 1.7 | 0.03 | 0.04 | 0.04 | 95 | 1014.7 |
| 20260903020100 | 77 | 0 | 0.9 | 2.6 | 0.03 | 0.04 | 0.04 | 95 | 1014.7 |
| 20260903015524 | 77 | 0 | 0.0 | 2.6 | 0.03 | 0.04 | 0.04 | 95 | 1014.9 |
| 20260903015023 | 77 | 0 | 0.9 | 2.6 | 0.03 | 0.04 | 0.04 | 94 | 1014.7 |
| 20260903014544 | 77 | 0 | 0.0 | 2.6 | 0.03 | 0.04 | 0.04 | 94 | 1014.7 |
| 20260903014020 | 77 | 0 | 0.9 | 4.3 | 0.03 | 0.04 | 0.04 | 94 | 1014.6 |
| 20260903013523 | 78 | 82 | 1.7 | 4.3 | 0.02 | 0.03 | 0.03 | 94 | 1014.5 |
| 20260903013041 | 78 | 48 | 0.9 | 4.3 | 0.02 | 0.03 | 0.03 | 94 | 1014.4 |
| 20260903012526 | 78 | 68 | 1.7 | 4.3 | 0.02 | 0.03 | 0.03 | 94 | 1014.2 |
| 20260903012027 | 78 | 36 | 1.7 | 5.2 | 0.02 | 0.03 | 0.03 | 94 | 1014.1 |
| 20260903011542 | 78 | 48 | 1.7 | 7.0 | 0.01 | 0.02 | 0.02 | 94 | 1014.1 |
| 20260903011024 | 78 | 65 | 2.6 | 7.0 | 0.01 | 0.02 | 0.02 | 94 | 1014.1 |
| 20260903010523 | 78 | 44 | 1.7 | 5.2 | 0.00 | 0.01 | 0.01 | 94 | 1014.0 |
| 20260903010045 | 78 | 12 | 0.9 | 7.0 | 0.00 | 0.01 | 0.01 | 94 | 1014.0 |
| 20260903005522 | 79 | 53 | 2.6 | 7.0 | 0.00 | 0.03 | 0.01 | 94 | 1014.0 |
| 20260903005022 | 79 | 51 | 3.5 | 7.0 | 0.00 | 0.03 | 0.01 | 94 | 1014.1 |
| 20260903004542 | 79 | 58 | 1.7 | 6.1 | 0.00 | 0.03 | 0.01 | 94 | 1014.0 |
| 20260903004023 | 79 | 48 | 2.6 | 7.0 | 0.00 | 0.03 | 0.01 | 94 | 1013.9 |
| 20260903003518 | 79 | 48 | 2.6 | 7.0 | 0.00 | 0.03 | 0.01 | 94 | 1013.9 |
| 20260903003044 | 79 | 65 | 2.6 | 7.0 | 0.00 | 0.03 | 0.01 | 94 | 1014.0 |
| 20260903002523 | 79 | 47 | 2.6 | 5.2 | 0.00 | 0.03 | 0.01 | 94 | 1014.0 |
| 20260903002026 | 79 | 56 | 1.7 | 6.1 | 0.00 | 0.03 | 0.01 | 94 | 1013.9 |
| 20260903001554 | 79 | 61 | 2.6 | 7.0 | 0.00 | 0.03 | 0.01 | 93 | 1013.9 |
| 20260903001020 | 79 | 31 | 2.6 | 7.0 | 0.00 | 0.03 | 0.01 | 93 | 1013.9 |
| 20260903000523 | 79 | 36 | 2.6 | 5.2 | 0.00 | 0.03 | 0.01 | 93 | 1013.9 |
| 20260903000045 | 79 | 50 | 1.7 | 5.2 | 0.00 | 0.03 | 0.01 | 93 | 1013.9 |
| 20260902235522 | 79 | 52 | 1.7 | 5.2 | 0.00 | 0.04 | 0.01 | 93 | 1013.7 |
| 20260902235021 | 79 | 28 | 1.7 | 8.7 | 0.00 | 0.04 | 0.01 | 92 | 1013.7 |
| 20260902234543 | 79 | 0 | 3.5 | 8.7 | 0.00 | 0.04 | 0.01 | 92 | 1013.8 |
| 20260902234027 | 79 | 30 | 1.7 | 5.2 | 0.00 | 0.04 | 0.01 | 92 | 1013.8 |
| 20260902233521 | 80 | 74 | 1.7 | 5.2 | 0.00 | 0.04 | 0.01 | 92 | 1013.8 |
| 20260902233043 | 80 | 26 | 0.0 | 3.5 | 0.00 | 0.04 | 0.01 | 92 | 1013.8 |
| 20260902232525 | 80 | 0 | 0.0 | 3.5 | 0.00 | 0.04 | 0.01 | 92 | 1013.6 |
| 20260902232023 | 80 | 41 | 0.9 | 3.5 | 0.00 | 0.04 | 0.01 | 91 | 1013.7 |
| 20260902231546 | 80 | 61 | 0.9 | 3.5 | 0.00 | 0.04 | 0.01 | 91 | 1013.8 |
| 20260902231021 | 81 | 0 | 0.9 | 3.5 | 0.00 | 0.04 | 0.01 | 90 | 1013.9 |
| 20260902230518 | 81 | 38 | 0.0 | 5.2 | 0.00 | 0.04 | 0.01 | 90 | 1013.8 |
| 20260902230042 | 81 | 18 | 1.7 | 5.2 | 0.00 | 0.04 | 0.01 | 90 | 1013.7 |
| 20260902225520 | 81 | 57 | 1.7 | 5.2 | 0.00 | 0.18 | 0.01 | 90 | 1013.7 |
| 20260902225028 | 81 | 38 | 1.7 | 4.3 | 0.00 | 0.18 | 0.01 | 90 | 1013.5 |
| 20260902224540 | 81 | 52 | 1.7 | 4.3 | 0.00 | 0.18 | 0.01 | 90 | 1013.6 |
| 20260902224023 | 81 | 37 | 0.9 | 3.5 | 0.00 | 0.18 | 0.01 | 90 | 1013.6 |
| 20260902223524 | 81 | 41 | 0.9 | 3.5 | 0.00 | 0.18 | 0.01 | 90 | 1013.5 |
| 20260902223045 | 81 | 50 | 0.9 | 4.3 | 0.00 | 0.18 | 0.01 | 90 | 1013.6 |
| 20260902222518 | 81 | 32 | 0.9 | 4.3 | 0.00 | 0.18 | 0.01 | 90 | 1013.6 |
| 20260902222022 | 80 | 46 | 0.0 | 0.0 | 0.00 | 0.18 | 0.01 | 91 | 1013.6 |
| 20260902221605 | 80 | 0 | 0.0 | 2.6 | 0.00 | 0.18 | 0.01 | 90 | 1013.5 |
| 20260902221025 | 81 | 0 | 0.0 | 4.3 | 0.00 | 0.18 | 0.01 | 90 | 1013.4 |
| 20260902220524 | 81 | 71 | 0.0 | 5.2 | 0.00 | 0.18 | 0.01 | 89 | 1013.1 |
| 20260902220042 | 81 | 71 | 1.7 | 5.2 | 0.00 | 0.18 | 0.01 | 89 | 1013.0 |
| 20260902215526 | 80 | 56 | 1.7 | 5.2 | 0.00 | 0.18 | 0.01 | 90 | 1013.1 |
| 20260902215024 | 80 | 16 | 1.7 | 5.2 | 0.00 | 0.18 | 0.01 | 90 | 1013.3 |
| 20260902214541 | 80 | 0 | 0.0 | 4.3 | 0.00 | 0.18 | 0.01 | 91 | 1013.2 |
| 20260902214019 | 80 | 42 | 1.7 | 4.3 | 0.00 | 0.18 | 0.01 | 90 | 1013.1 |
| 20260902213518 | 80 | 70 | 2.6 | 7.0 | 0.00 | 0.18 | 0.01 | 89 | 1013.2 |
| 20260902213041 | 81 | 101 | 2.6 | 9.6 | 0.00 | 0.18 | 0.01 | 87 | 1013.3 |
| 20260902212520 | 82 | 59 | 5.2 | 9.6 | 0.00 | 0.18 | 0.01 | 84 | 1013.4 |
| 20260902212025 | 83 | 59 | 4.3 | 10.4 | 0.00 | 0.18 | 0.01 | 82 | 1013.4 |
| 20260902211544 | 83 | 52 | 4.3 | 13.0 | 0.00 | 0.18 | 0.01 | 82 | 1013.1 |
| 20260902211023 | 83 | 56 | 6.1 | 13.0 | 0.00 | 0.18 | 0.01 | 81 | 1013.1 |
| 20260902210523 | 84 | 34 | 7.8 | 13.0 | 0.00 | 0.18 | 0.01 | 81 | 1013.3 |
| 20260902210042 | 84 | 61 | 6.1 | 14.8 | 0.00 | 0.18 | 0.01 | 82 | 1013.4 |
| 20260902205522 | 85 | 53 | 7.0 | 14.8 | 0.00 | 0.18 | 0.01 | 82 | 1013.4 |
| 20260902205020 | 85 | 76 | 5.2 | 13.9 | 0.00 | 0.18 | 0.01 | 82 | 1013.1 |
| 20260902204600 | 86 | 52 | 7.8 | 13.9 | 0.00 | 0.18 | 0.01 | 80 | 1013.2 |
| 20260902204023 | 87 | 90 | 5.2 | 13.9 | 0.00 | 0.18 | 0.01 | 77 | 1013.1 |
| 20260902203520 | 87 | 65 | 3.5 | 9.6 | 0.00 | 0.18 | 0.01 | 79 | 1013.2 |
| 20260902203050 | 87 | 36 | 2.6 | 10.4 | 0.00 | 0.18 | 0.01 | 80 | 1013.1 |
| 20260902202520 | 86 | 82 | 3.5 | 10.4 | 0.00 | 0.18 | 0.01 | 80 | 1013.0 |
| 20260902202024 | 86 | 268 | 1.7 | 9.6 | 0.00 | 0.18 | 0.01 | 80 | 1012.9 |
| 20260902201544 | 86 | 38 | 3.5 | 9.6 | 0.00 | 0.18 | 0.01 | 79 | 1012.9 |
| 20260902201029 | 87 | 55 | 5.2 | 10.4 | 0.00 | 0.18 | 0.01 | 77 | 1012.8 |
| 20260902200522 | 88 | 29 | 4.3 | 12.2 | 0.00 | 0.18 | 0.01 | 76 | 1013.0 |
| 20260902200041 | 89 | 24 | 3.5 | 12.2 | 0.00 | 0.18 | 0.01 | 78 | 1013.0 |
| 20260902195524 | 88 | 74 | 7.0 | 12.2 | 0.00 | 0.18 | 0.01 | 75 | 1013.2 |